KUIPER-00061

导读 | 豆包AI

KUIPER-00061是美国亚马逊柯伊伯(Project Kuiper)低轨互联网星座的成员卫星,于2025年6月23日发射,是柯伊伯星座大规模部署阶段的组网卫星之一。该星座计划发射3236颗卫星,旨在为全球尤其是偏远地区提供高速低延迟的卫星互联网服务,并与亚马逊云服务深度整合,提供云通信一体化解决方案。按FCC要求,柯伊伯星座需在2026年7月前完成半数卫星发射,KUIPER-00061的发射是亚马逊实现星座组网目标的重要一步。

基本信息
目录编号:
64521
目录名称:
KUIPER-00061
国际标识:
2025-134X
轨道中心:
EARTH
卫星名称:
KUIPER-00061
卫星全名:
KUIPER-00061
卫星状态:
在轨 (已飞行264 天)
发射日期:
2025-06-23 UTC
国别 :
美国 (US)
星等 :
--
轨道信息
数据来源 国际轨道数据 AOE轨道数据
星历时间 2026-03-13T16:23:41+0800
18小时前
查看轨道信息
2026-03-14T08:00:00+0800
3小时前
查看轨道信息
半长轴 7007.724km 7007.752km
偏心率 0.0001147 0.0000713
轨道倾角 51.902° 51.900°
近地点辐角 135.404° 114.201°
升交点赤经 211.904° 209.032°
平近点角 224.702° 112.130°
近地点 628.783km 629.115km
远地点 630.391km 630.115km
周期 97.303分钟 97.303分钟
每日圈数 14.799169 14.799079
详细信息
使用方式:
暂无
2D轨道图
3D轨道图
轨道高度分析图
轨道倾角分析图
轨道综合分析图
查看轨道综合分析图